Regional Weather Roundup
Issued by NWS

Home | Current Version | Previous Version | Text Only | Print | Product List | Glossary Off
Versions: 1 2 3 4 5 6 7 8 9 10 11 12 13 14 15 16 17 18 19 20 21 22 23 24 25 26 27 28 29 30 31 32 33 34 35 36 37 38 39 40 41 42 43 44 45 46 47 48 49 50

000
ASUS45 KCYS 120210
RWRWY

WYOMING REGIONAL WEATHER ROUNDUP
NATIONAL WEATHER SERVICE CHEYENNE WY
800 PM MDT FRI JUL 11 2014

NOTE:  "FAIR" INDICATES FEW OR NO CLOUDS BELOW 12,000 FEET
WITH NO SIGNIFICANT WEATHER AND/OR OBSTRUCTIONS TO VISIBILITY.

WYZ001-120300-
YELLOWSTONE NATIONAL PARK

CITY           SKY/WX    TMP DP  RH WIND       PRES   REMARKS
LK YELLOWSTONE   N/A     56  48  74 CALM      30.39R
W YELLOWSTONE  NOT AVBL

$$
WYZ002>013-054>058-071-098>099-120300-
NORTHERN WYOMING

CITY           SKY/WX    TMP DP  RH WIND       PRES   REMARKS
JACKSON        MOCLDY    61  57  88 S6        30.28R
CODY           CLOUDY    68  55  64 S8        30.17F
GREYBULL       CLOUDY    70  57  63 E14       30.11R
WORLAND        CLOUDY    74  54  49 S7        30.13R
SHERIDAN       CLOUDY    74  56  53 SE18G26   30.10R
BUFFALO        CLOUDY    67  57  70 S13       30.21R
GILLETTE       CLOUDY    68  58  70 W3        30.16S
HULETT         MOCLDY    68  55  64 MISG      30.17
NEWCASTLE      LGT RAIN  63  57  82 CALM      30.18

$$
WYZ014>020-022>026-101>103-120300-
CENTRAL WYOMING

CITY           SKY/WX    TMP DP  RH WIND       PRES   REMARKS
BIG PINEY      CLOUDY    68  47  46 CALM      30.30R
PINEDALE       CLOUDY    64  50  59 SW5       30.31S
DUBOIS         FAIR      55  52  88 CALM      30.35S
LANDER         CLOUDY    62  59  90 W10       30.25F
RIVERTON       CLOUDY    61  59  93 SW12      30.25F
CASPER         CLOUDY    69  53  56 E10       30.23R
DOUGLAS        CLOUDY    65  56  72 CALM      30.23R

$$
WYZ021-027>030-104>119-120300-
SOUTHERN WYOMING

CITY           SKY/WX    TMP DP  RH WIND       PRES   REMARKS
EVANSTON       CLOUDY    68  54  60 E6        30.28R
KEMMERER       CLOUDY   N/A N/A N/A NW7       30.30S
FORT BRIDGER   CLOUDY    68  53  59 S5        30.31R
ROCK SPRINGS   CLOUDY    63  56  78 NE15G21   30.27R
DIXON          MOCLDY    75  53  45 N7        30.23R
RAWLINS        MOCLDY    66  53  63 E14       30.27R
SARATOGA       FAIR      63  55  77 N7        30.28R
LARAMIE        CLOUDY    65  56  72 NE14      30.29R
CHEYENNE       LGT RAIN  65  62  90 SE12      30.24R FOG
TORRINGTON     CLOUDY    66  60  81 N23G31    30.15R

$$


USA.gov is the U.S. government's official web portal to all federal, state and local government web resources and services.